Date String (YYYY-MM-DD hh:mm:ss) UTC,Instrument flags,absolute air pressure of the measurement (hPa),sample flow rate (lpm),inlet stack bypass flow (lpm),air temperature of the measurement (°C),ambient temperature measured by the external sensor (°C),aerosol sample conditioner tube jacket temperature (°C),OPC LED temperature (°C),internal box temperature (°C),relative humidity of the measurement (%),span deviation,mass concentration of particles derived from Lorenz-Mie calculation of OPC scattering (μg/m³),mass concentration of particles derived from Lorenz-Mie calculation of OPC scattering (μg/m³),mass concentration of particles derived from Lorenz-Mie calculation of OPC scattering (μg/m³)
DateTimeUTC,F1_M11,P_M11,Q1_M11,Q2_M11,T1_M11,T2_M11,T3_M11,T4_M11,T5_M11,U1_M11,ZSPAN_M11,X0_M11,X2_M11,X1_M11
2023-07-06 03:00:00,SystemResetWarning,0834.7,5.01,000.00,030.7,029.1,000.0,039.2,032.0,33.3,-001.6,0011.51,0008.38,0008.14
2023-07-06 03:01:00,SystemResetWarning,0835.0,5.01,000.00,030.7,029.1,000.0,039.2,032.0,33.4,-001.9,0011.22,0008.39,0008.17
2023-07-06 03:02:00,SystemResetWarning,0835.2,5.00,000.00,030.7,029.1,000.0,039.2,032.0,33.4,-002.4,0011.14,0008.46,0008.23
2023-07-06 03:03:00,SystemResetWarning,0835.5,5.00,000.00,030.7,029.1,000.0,039.2,032.0,33.4,-002.3,0011.28,0008.49,0008.24
2023-07-06 03:04:00,SystemResetWarning,0835.5,5.00,000.00,030.7,029.1,000.0,039.2,032.0,33.5,-002.3,0011.35,0008.54,0008.28
2023-07-06 03:05:00,SystemResetWarning,0835.6,5.00,000.00,030.7,029.1,000.0,039.2,032.0,33.5,-002.3,0011.49,0008.62,0008.36
2023-07-06 03:06:00,SystemResetWarning,0835.6,5.00,000.00,030.7,029.1,000.0,039.2,032.0,33.4,-002.5,0011.59,0008.69,0008.43
2023-07-06 03:07:00,SystemResetWarning,0835.5,5.00,000.00,030.7,029.1,000.0,039.2,032.0,33.4,-002.3,0011.83,0008.83,0008.54
2023-07-06 03:08:00,SystemResetWarning,0835.5,4.99,000.00,030.7,028.0,000.0,039.1,031.9,33.4,-002.0,0012.26,0008.90,0008.59
2023-07-06 03:09:00,SystemResetWarning,0835.4,5.00,000.00,030.6,026.0,000.0,039.0,031.7,33.5,-001.9,0012.34,0008.96,0008.64
2023-07-06 03:10:00,SystemResetWarning,0835.3,5.01,000.00,030.5,025.4,000.0,038.9,031.4,33.7,-002.0,0012.36,0008.99,0008.68
2023-07-06 03:11:00,SystemResetWarning,0835.5,5.01,000.00,030.3,025.6,000.0,038.9,031.1,34.1,-002.0,0012.26,0008.96,0008.67
2023-07-06 03:12:00,SystemResetWarning,0835.5,5.00,000.00,030.2,026.0,000.0,038.9,031.1,34.3,-001.9,0012.29,0008.96,0008.66
2023-07-06 03:13:00,SystemResetWarning,0835.5,5.00,000.00,030.1,026.4,000.0,038.9,031.2,34.4,-001.8,0012.23,0008.89,0008.60
2023-07-06 03:14:00,SystemResetWarning,0835.6,5.00,000.00,030.1,026.8,000.0,038.8,031.2,34.4,-001.5,0012.04,0008.81,0008.53
2023-07-06 03:15:00,SystemResetWarning,0835.5,4.99,000.00,030.1,027.2,000.0,038.8,031.3,34.5,-001.4,0012.21,0008.76,0008.49
2023-07-06 03:16:00,SystemResetWarning,0835.6,4.99,000.00,030.1,027.5,000.0,038.8,031.3,34.5,-001.3,0012.42,0008.71,0008.42
2023-07-06 03:17:00,SystemResetWarning,0835.6,4.99,000.00,030.1,027.7,000.0,038.8,031.4,34.4,-001.2,0012.31,0008.64,0008.36
2023-07-06 03:18:00,SystemResetWarning,0835.6,5.01,000.00,030.1,027.9,000.0,038.8,031.4,34.4,-001.1,0012.29,0008.61,0008.32
2023-07-06 03:19:00,SystemResetWarning,0835.6,5.01,000.00,030.1,028.1,000.0,038.7,031.4,34.3,-001.2,0012.07,0008.63,0008.32
2023-07-06 03:20:00,SystemResetWarning,0835.6,5.00,000.00,030.1,028.2,000.0,038.7,031.4,34.3,-001.4,0012.03,0008.60,0008.29
2023-07-06 03:21:00,SystemResetWarning,0835.6,4.99,000.00,030.1,028.3,000.0,038.7,031.4,34.2,-001.2,0011.96,0008.55,0008.24
2023-07-06 03:22:00,SystemResetWarning,0835.6,5.00,000.00,030.1,028.4,000.0,038.7,031.5,34.1,-001.0,0012.02,0008.56,0008.24
2023-07-06 03:23:00,SystemResetWarning,0835.6,5.00,000.00,030.1,028.5,000.0,038.7,031.5,34.1,-000.9,0011.99,0008.53,0008.21
2023-07-06 03:24:00,SystemResetWarning,0835.6,5.02,000.00,030.1,028.5,000.0,038.7,031.5,34.1,-000.8,0011.97,0008.51,0008.19
2023-07-06 03:25:00,SystemResetWarning,0835.7,4.99,000.00,030.1,028.6,000.0,038.7,031.5,34.1,-000.7,0011.99,0008.53,0008.19
2023-07-06 03:26:00,SystemResetWarning,0835.7,5.00,000.00,030.1,028.6,000.0,038.7,031.6,34.0,-000.9,0011.63,0008.48,0008.16
2023-07-06 03:27:00,SystemResetWarning,0835.7,4.99,000.00,030.1,028.7,000.0,038.7,031.6,34.0,-001.2,0011.81,0008.44,0008.14
2023-07-06 03:28:00,SystemResetWarning,0835.7,5.00,000.00,030.2,028.7,000.0,038.7,031.6,34.0,-001.2,0011.98,0008.43,0008.13
2023-07-06 03:29:00,SystemResetWarning,0835.8,5.00,000.00,030.2,028.7,000.0,038.7,031.6,33.9,-001.4,0011.87,0008.38,0008.09
2023-07-06 03:30:00,SystemResetWarning,0835.8,5.00,000.00,030.2,028.8,000.0,038.7,031.6,33.9,-001.5,0011.77,0008.34,0008.07
2023-07-06 03:31:00,SystemResetWarning,0835.8,5.00,000.00,030.2,028.8,000.0,038.7,031.7,33.9,-001.5,0011.69,0008.30,0008.05
2023-07-06 03:32:00,SystemResetWarning,0835.8,5.00,000.00,030.2,028.8,000.0,038.7,031.7,33.9,-001.7,0011.82,0008.30,0008.04
2023-07-06 03:33:00,SystemResetWarning,0835.8,5.01,000.00,030.2,028.8,000.0,038.7,031.7,33.9,-001.8,0012.15,0008.29,0008.03
2023-07-06 03:34:00,SystemResetWarning,0835.9,5.01,000.00,030.2,028.9,000.0,038.7,031.7,34.0,-001.7,0012.12,0008.29,0008.03
2023-07-06 03:35:00,SystemResetWarning,0835.9,5.00,000.00,030.3,028.9,000.0,038.7,031.7,34.0,-001.8,0012.15,0008.33,0008.06
2023-07-06 03:36:00,SystemResetWarning,0836.0,5.00,000.00,030.3,028.9,000.0,038.7,031.7,34.0,-001.9,0012.19,0008.35,0008.08
2023-07-06 03:37:00,SystemResetWarning,0836.1,4.98,000.00,030.3,028.9,000.0,038.8,031.7,34.0,-001.8,0012.28,0008.39,0008.11
2023-07-06 03:38:00,SystemResetWarning,0836.1,5.00,000.00,030.3,028.9,000.0,038.8,031.7,33.9,-001.7,0012.10,0008.44,0008.18
2023-07-06 03:39:00,SystemResetWarning,0836.1,5.00,000.00,030.3,029.0,000.0,038.8,031.7,33.9,-001.8,0011.67,0008.49,0008.22
2023-07-06 03:40:00,SystemResetWarning,0836.1,5.00,000.00,030.3,029.0,000.0,038.8,031.8,33.8,-001.8,0011.70,0008.53,0008.27
2023-07-06 03:41:00,SystemResetWarning,0836.2,5.00,000.00,030.3,029.0,000.0,038.8,031.8,33.8,-001.9,0012.10,0008.56,0008.30
2023-07-06 03:42:00,SystemResetWarning,0836.2,5.01,000.00,030.4,029.0,000.0,038.8,031.8,33.7,-001.9,0012.18,0008.58,0008.30
2023-07-06 03:43:00,SystemResetWarning,0836.3,5.00,000.00,030.4,029.0,000.0,038.8,031.8,33.8,-001.8,0012.23,0008.59,0008.31
2023-07-06 03:44:00,SystemResetWarning,0836.3,5.01,000.00,030.4,029.0,000.0,038.8,031.9,33.7,-001.5,0011.89,0008.58,0008.30
2023-07-06 03:45:00,SystemResetWarning,0836.3,4.98,000.00,030.4,027.5,000.0,038.7,031.8,33.7,-001.6,0011.82,0008.57,0008.27
2023-07-06 03:46:00,SystemResetWarning,0836.3,5.00,000.00,030.3,025.9,000.0,038.6,031.5,33.8,-002.0,0011.78,0008.53,0008.25
2023-07-06 03:47:00,SystemResetWarning,0836.3,5.00,000.00,030.2,025.5,000.0,038.6,031.2,34.0,-002.1,0011.78,0008.53,0008.24
2023-07-06 03:48:00,SystemResetWarning,0836.3,5.01,000.00,030.0,025.7,000.0,038.6,030.9,34.4,-002.1,0011.72,0008.51,0008.23
2023-07-06 03:49:00,SystemResetWarning,0836.3,5.01,000.00,029.9,026.1,000.0,038.6,031.0,34.6,-002.1,0011.70,0008.48,0008.19
2023-07-06 03:50:00,SystemResetWarning,0836.3,5.00,000.00,029.9,026.5,000.0,038.6,031.1,34.6,-002.1,0011.68,0008.46,0008.18
2023-07-06 03:51:00,SystemResetWarning,0836.3,5.00,000.00,029.9,026.9,000.0,038.6,031.1,34.7,-002.0,0011.75,0008.46,0008.17
2023-07-06 03:52:00,SystemResetWarning,0836.4,4.98,000.00,029.8,027.2,000.0,038.5,031.2,34.8,-002.0,0011.31,0008.43,0008.17
2023-07-06 03:53:00,SystemResetWarning,0836.4,5.00,000.00,029.8,027.5,000.0,038.5,031.2,34.8,-002.0,0011.33,0008.45,0008.18
2023-07-06 03:54:00,SystemResetWarning,0836.4,5.01,000.00,029.8,027.7,000.0,038.5,031.2,34.8,-002.2,0011.37,0008.46,0008.18
2023-07-06 03:55:00,SystemResetWarning,0836.5,5.00,000.00,029.8,027.9,000.0,038.5,031.3,34.8,-002.4,0011.51,0008.51,0008.20
2023-07-06 03:56:00,SystemResetWarning,0836.5,5.01,000.00,029.8,028.0,000.0,038.5,031.3,34.8,-002.6,0011.49,0008.54,0008.24
2023-07-06 03:57:00,SystemResetWarning,0836.6,5.00,000.00,029.9,028.1,000.0,038.5,031.3,34.7,-002.3,0011.49,0008.56,0008.26
2023-07-06 03:58:00,SystemResetWarning,0836.6,4.99,000.00,029.9,028.3,000.0,038.5,031.3,34.7,-002.1,0011.47,0008.57,0008.28
2023-07-06 03:59:00,SystemResetWarning,0836.6,4.99,000.00,029.9,028.3,000.0,038.5,031.4,34.6,-002.3,0011.43,0008.56,0008.28
